Location: Bakhuizen
(52.8696°N, 5.4575°E)
Time: 16:15:33
(UTC+00:00)

Cosmos 773 Rocket - Pass Details

Date: 30 September 2021
Orbit: 745 x 777 km, 74.1° (Epoch: 19 October)

Event Time Altitude Azimuth Distance (km) Brightness Sun altitude
Rises 18:49:02 0° 325° (NW) 3,252 8.1 -14.6°
Reaches altitude 10° 18:51:56 10° 309° (NW) 2,326 7.6 -15.0°
Maximum altitude 18:55:45 21° 263° (W) 1,709 6.7 -15.6°
Drops below altitude 10° 18:59:33 10° 217° (SW) 2,323 6.7 -16.1°
Sets 19:02:28 0° 201° (SSW) 3,247 7.3 -16.5°
